Theta_e
312 311 308 306 304 302 300 300 300 300 302 301 303 302 302 302 302 302 302 303 303 302 302 301 301 301 302 302 302 302 302 301 300 301 302 305 310 318 320 322 323 322 321 322 323 322 322 320 319 319 319 318 317 316 316 315 315 315 315 314 314 314 314 313 312 313 312 312 313 312 312 313 312 312 312 312 312 312 312 312 312 313 312 311 311
312 309 308 305 303 301 300 299 299 299 301 301 301 302 302 301 301 301 301 301 302 301 302 301 300 300 300 300 300 300 299 299 299 299 300 302 305 312 317 319 322 321 320 320 321 321 321 319 319 318 318 317 316 317 315 315 314 314 315 314 313 313 313 312 312 312 312 312 312 311 311 312 312 311 311 312 311 311 311 311 311 312 311 311 311
311 309 307 304 303 301 299 298 298 298 300 300 300 301 301 301 301 301 300 300 300 300 301 300 298 298 299 300 299 299 298 298 297 297 298 299 301 303 309 315 319 320 321 319 318 318 319 318 318 319 318 318 317 316 316 315 314 313 313 313 312 312 311 311 312 311 311 311 311 311 311 311 310 310 311 311 311 311 311 310 310 310 310 310 311
310 309 307 304 303 300 298 298 298 297 299 299 299 300 300 299 299 299 299 299 298 299 299 299 297 297 297 298 298 297 297 296 296 295 296 297 298 299 301 303 310 316 319 319 319 320 320 318 316 319 319 318 318 316 315 314 313 313 313 312 312 311 311 311 310 310 310 310 310 310 310 310 310 310 310 311 310 310 310 310 309 309 310 309 309
310 308 306 305 303 300 298 298 298 297 298 298 298 298 299 298 297 298 297 297 297 296 297 297 296 295 295 296 296 296 295 294 294 294 294 294 295 295 296 297 297 305 310 316 319 319 319 318 316 315 316 317 316 315 315 315 314 314 313 312 312 311 311 311 310 309 309 310 310 310 310 310 310 310 310 310 310 309 309 309 309 309 309 309 309
311 307 306 305 303 300 298 297 297 297 297 298 298 298 298 297 297 297 298 297 296 296 297 295 294 294 294 294 294 294 294 293 292 291 292 292 292 293 293 293 294 296 297 306 313 318 317 316 317 316 315 315 315 315 315 314 313 313 313 312 311 311 310 310 309 309 310 309 309 309 309 309 309 309 309 309 309 309 309 308 308 309 308 308 308
312 309 306 306 305 300 299 297 296 297 297 297 298 298 298 297 297 297 296 295 295 296 296 295 294 293 293 293 293 293 293 292 292 291 292 291 292 291 291 291 292 293 294 294 301 309 317 317 315 315 315 314 313 313 314 314 313 312 312 311 311 310 310 309 309 309 308 308 308 308 308 308 308 308 308 308 309 309 308 307 308 308 307 307 307
313 310 307 307 307 303 300 298 297 296 297 297 298 297 297 297 297 298 296 294 294 292 293 293 292 292 292 292 292 292 291 291 291 291 290 290 290 290 289 290 290 292 293 290 293 300 311 315 315 314 314 313 314 312 313 312 312 311 310 310 311 310 309 309 309 309 308 308 307 308 308 308 307 308 308 308 308 308 307 307 307 307 307 307 307
313 311 308 307 308 305 302 300 298 297 297 297 297 298 297 297 296 296 298 295 294 292 291 292 291 290 291 290 291 291 291 290 290 290 290 289 288 288 288 288 289 292 286 288 289 291 301 309 311 314 315 314 313 313 313 312 311 311 310 309 309 309 308 308 308 308 308 307 307 307 307 307 307 307 307 307 307 307 307 307 307 307 307 307 307
314 312 309 308 308 307 303 300 299 299 298 298 298 298 298 298 297 297 297 296 294 292 291 290 291 290 290 290 290 290 290 290 290 291 289 289 287 286 284 284 285 285 286 286 286 288 289 296 302 305 307 313 312 313 312 311 311 311 310 310 309 309 308 307 308 307 307 307 307 307 306 307 306 306 306 307 306 306 306 307 306 306 307 306 306
316 313 310 308 308 307 303 300 300 299 299 299 299 298 298 299 298 296 297 297 295 294 292 290 290 290 289 288 289 288 289 290 289 289 289 288 290 289 285 284 284 284 284 284 285 286 288 287 287 290 296 308 312 316 311 311 310 310 310 309 309 308 307 306 307 306 307 306 307 306 306 306 306 306 306 305 305 305 305 306 306 305 306 306 305
317 314 312 308 308 307 304 301 300 299 299 299 298 298 298 297 297 296 294 292 292 291 291 290 289 288 289 288 288 289 290 288 288 288 288 287 286 286 285 284 282 282 282 282 283 284 285 285 287 286 288 297 305 309 312 313 313 309 309 310 309 308 306 306 307 307 306 306 306 306 306 305 305 305 305 305 305 304 305 305 305 305 305 305 305
319 316 314 310 308 307 304 301 300 300 299 299 299 299 299 299 297 296 294 292 290 290 291 291 290 288 288 287 287 288 289 288 287 287 287 286 285 285 284 283 282 282 281 282 282 282 283 284 284 285 286 285 290 299 304 306 310 311 309 308 309 308 307 306 307 306 305 305 305 305 304 305 304 304 305 305 304 304 304 305 304 304 304 305 305
320 318 315 313 310 308 305 302 301 300 300 300 299 299 299 299 297 295 295 294 291 291 291 294 292 293 290 287 287 287 289 287 287 287 286 285 285 284 282 282 282 281 281 281 281 281 282 282 283 284 284 285 284 285 289 290 296 308 314 309 309 308 307 307 306 306 305 305 303 303 304 303 303 304 303 303 303 303 304 304 304 304 304 304 304
322 319 317 315 312 310 307 304 302 301 300 299 298 298 299 298 297 297 294 294 292 292 291 297 294 289 290 290 287 289 290 288 286 286 286 285 284 283 283 281 281 280 280 280 281 282 282 281 282 283 283 283 283 284 286 289 293 300 305 309 308 308 308 308 307 306 304 305 304 302 302 303 303 303 303 303 302 302 303 303 303 303 303 303 303
324 322 320 318 315 312 309 305 303 302 301 300 299 298 298 298 297 297 296 293 291 290 292 295 291 293 291 292 285 286 287 291 287 285 284 285 284 282 282 281 280 280 280 280 282 281 280 281 281 281 281 281 282 283 284 284 292 295 295 297 307 307 308 307 307 306 305 304 303 303 302 302 302 303 302 302 302 302 302 303 302 302 302 302 303
326 324 320 320 317 314 310 307 305 304 302 301 299 299 298 298 297 297 297 297 292 292 292 293 291 300 294 286 284 284 289 285 285 285 284 284 283 282 282 282 280 280 281 280 280 280 280 280 280 281 280 281 281 281 281 281 281 287 286 292 302 305 306 307 307 306 305 305 304 303 302 301 302 302 302 302 301 302 302 301 301 301 301 302 302
326 325 322 320 318 316 312 309 306 305 303 304 302 301 300 298 297 298 297 298 296 293 292 292 291 293 294 293 293 293 291 284 288 288 284 284 283 283 282 282 280 281 280 280 280 280 281 281 280 281 280 280 280 280 281 281 285 281 282 288 302 304 305 305 307 305 305 304 304 303 302 302 301 301 301 301 301 301 300 301 301 300 300 300 301
324 325 323 320 319 316 313 310 308 306 304 304 302 301 300 299 298 298 298 298 297 293 292 292 290 290 292 290 288 286 287 286 286 285 284 285 284 283 283 283 281 280 280 280 280 279 280 280 280 280 280 280 280 280 280 281 289 288 295 298 303 303 303 303 304 304 305 305 304 304 303 302 301 301 301 300 300 300 300 300 300 299 299 299 301
319 319 322 321 319 317 315 312 309 307 304 303 303 302 300 299 298 298 299 298 297 295 294 293 290 291 291 290 287 286 287 288 289 290 288 284 283 283 282 283 282 281 281 281 280 280 279 279 280 279 279 280 280 280 280 280 279 280 286 299 304 303 302 301 300 300 302 303 304 303 303 303 302 301 301 300 300 300 300 300 299 299 299 300 300
318 319 318 319 318 318 316 313 311 309 305 304 304 302 300 299 298 297 297 297 297 297 296 293 292 294 292 291 288 285 286 287 286 287 286 284 284 283 282 282 282 282 281 281 282 281 280 279 280 280 280 281 280 279 280 280 280 280 287 297 304 303 302 301 299 298 297 298 301 302 303 303 302 301 301 300 300 300 300 299 299 299 299 299 299
314 315 316 316 317 317 316 314 312 310 305 305 305 304 302 300 299 298 298 297 297 297 297 296 294 296 294 294 291 286 284 284 285 285 284 284 286 283 284 282 281 282 283 282 282 281 281 280 279 279 279 279 279 279 279 279 280 281 284 294 301 304 302 300 299 297 297 297 298 298 301 302 302 302 301 300 300 300 300 299 299 299 299 298 299
313 313 313 314 314 313 315 315 314 310 307 306 305 304 303 301 300 299 298 297 297 297 296 297 296 295 295 295 293 290 289 288 286 284 285 285 284 285 284 284 283 282 282 283 282 281 281 281 280 279 279 279 279 278 278 278 282 283 287 292 296 302 303 302 300 298 297 297 297 297 297 298 299 300 300 300 300 299 300 299 300 299 299 298 298
312 312 312 312 312 312 311 313 311 311 309 308 307 306 305 303 301 299 298 298 298 297 296 296 296 295 295 296 295 294 293 293 293 289 286 288 288 288 285 285 284 284 283 282 282 281 280 280 280 280 280 279 279 279 278 278 280 285 287 290 295 299 303 304 301 299 298 298 297 297 297 297 297 297 298 299 300 300 300 300 300 300 299 299 297
310 311 313 312 311 312 311 311 311 311 310 309 307 306 305 304 302 300 299 298 297 297 296 296 296 295 295 295 295 295 293 294 292 289 288 290 288 287 285 285 284 283 282 281 280 281 281 280 280 280 280 279 279 278 278 278 278 284 287 286 292 296 300 301 301 300 298 298 297 297 297 297 297 297 297 298 299 300 299 299 300 300 300 299 298
308 309 312 313 312 312 312 312 311 311 310 310 308 307 306 304 302 300 299 298 298 297 297 296 297 297 296 295 294 293 293 293 292 290 288 288 287 287 284 283 283 283 281 280 281 280 281 281 281 280 280 280 279 278 278 278 278 284 287 284 287 293 296 298 300 300 299 297 297 297 295 296 297 296 297 298 299 299 299 299 299 299 299 299 299
304 305 305 308 310 311 311 311 310 310 309 309 308 307 306 305 303 301 300 299 298 297 297 296 296 296 296 295 294 293 292 292 292 291 290 289 289 288 285 283 282 282 281 281 280 280 283 282 282 280 280 280 279 279 279 278 280 284 286 284 280 288 293 296 298 299 299 298 297 297 296 295 295 295 296 296 297 297 298 298 298 298 297 297 297
301 300 301 303 305 307 308 309 310 310 309 308 308 307 306 304 303 302 300 300 298 297 297 296 296 296 295 295 294 292 293 292 292 292 291 290 290 289 287 287 285 282 282 280 280 280 283 281 281 281 280 280 280 279 281 281 280 284 286 283 279 281 290 294 297 297 298 297 297 296 296 295 295 295 295 295 295 295 295 294 295 295 294 294 295
300 300 300 301 302 303 304 305 306 306 307 306 306 307 306 304 303 302 301 300 298 297 297 296 296 296 295 295 294 293 292 292 292 291 291 290 290 290 289 288 288 288 283 280 280 280 281 282 280 281 281 281 280 280 280 279 281 283 282 283 281 279 285 292 295 297 297 296 296 296 296 296 295 295 294 294 294 294 295 295 295 295 294 294 294
300 299 299 300 300 299 302 302 303 303 304 304 305 306 306 305 303 302 302 301 299 298 297 297 296 296 295 295 294 293 293 292 291 291 290 290 289 289 289 289 290 289 289 285 286 283 282 282 282 282 281 281 281 280 280 280 283 283 281 281 282 280 284 288 292 294 295 295 296 297 297 296 296 295 294 294 294 294 295 295 295 295 294 294 294
298 298 298 298 298 298 299 300 301 301 302 303 304 305 305 304 303 302 302 301 299 298 298 297 297 296 295 294 294 293 293 292 292 291 290 290 289 289 288 288 288 290 290 289 286 286 284 281 282 284 282 281 281 281 280 280 282 283 280 280 281 283 285 285 288 290 292 293 294 296 297 297 296 295 295 294 294 295 295 295 295 294 294 293 293
298 298 297 297 297 297 297 298 299 300 301 301 303 304 304 304 303 301 301 301 300 299 298 297 297 296 295 294 294 293 293 292 292 291 290 290 289 289 288 287 288 288 289 289 287 288 283 284 283 283 283 281 282 280 279 280 282 285 281 281 281 284 283 282 286 288 289 291 293 295 296 297 297 296 295 295 294 294 294 295 294 293 293 293 293
296 296 296 297 297 297 297 297 298 298 299 301 302 303 303 303 303 302 300 300 298 299 298 297 297 296 295 295 294 294 294 293 292 291 290 289 289 288 288 287 287 288 288 287 286 287 285 281 283 283 283 282 281 281 280 280 280 282 282 281 281 281 281 281 282 286 288 289 290 292 294 295 296 295 295 295 294 294 294 294 294 293 293 293 292
295 297 297 296 296 296 296 297 297 297 298 300 301 301 301 301 301 302 301 299 298 298 297 296 296 296 296 295 294 294 294 293 293 292 291 290 289 288 287 287 287 287 287 287 287 287 287 279 280 280 280 282 280 282 281 280 279 281 281 280 280 281 280 280 280 281 286 287 289 290 291 292 294 294 295 295 295 295 295 294 293 293 292 291 291
294 296 296 296 295 295 296 296 297 297 297 298 299 300 300 300 299 299 300 298 298 297 297 297 296 296 295 295 295 295 294 293 292 292 291 290 289 288 287 287 287 287 287 287 286 286 287 282 280 279 279 280 281 280 281 281 281 280 280 280 279 280 280 280 279 279 284 286 288 288 289 290 291 292 293 294 294 294 294 294 293 292 291 290 290
294 294 294 296 294 294 294 294 295 295 295 295 295 297 299 298 298 299 298 298 298 298 297 297 297 296 295 294 294 294 294 292 292 291 291 290 289 288 287 288 287 287 288 287 286 288 287 283 279 279 280 279 280 281 281 281 281 280 280 280 280 279 279 280 279 279 281 285 287 288 289 290 290 291 292 292 292 293 293 293 292 291 291 290 290
294 293 292 292 293 294 295 295 295 294 294 295 296 296 297 297 298 298 298 298 297 297 297 297 295 296 296 295 295 295 294 292 292 291 291 290 290 289 288 289 288 288 288 287 286 286 285 284 281 281 281 280 279 280 281 280 279 279 280 279 280 279 279 279 279 280 281 284 286 287 288 289 290 291 291 292 292 292 292 292 292 291 290 289 288
293 292 292 291 292 294 294 295 294 294 294 293 294 295 296 296 296 296 297 297 297 297 297 297 297 297 296 296 295 295 294 293 293 293 292 291 291 290 289 288 288 288 287 286 286 285 284 283 281 279 278 278 278 278 280 280 278 277 277 278 278 278 278 278 278 278 279 279 280 282 285 287 288 290 291 291 292 292 292 292 291 290 289 288 287
291 292 291 291 291 292 294 294 294 294 294 293 294 295 295 296 296 296 296 296 296 296 297 297 297 297 297 296 296 295 295 294 294 293 293 292 291 290 289 289 288 287 287 286 285 284 284 282 280 280 279 279 279 278 279 280 279 278 277 276 276 277 277 277 277 278 278 278 280 282 282 282 284 285 288 290 291 291 291 291 290 290 287 287 287
290 291 291 291 291 291 292 293 293 293 293 294 294 294 294 295 295 295 295 295 295 296 296 296 296 296 296 296 296 296 296 295 295 294 294 293 292 290 290 289 288 287 286 286 284 283 283 282 282 280 280 279 279 278 279 279 278 278 279 278 276 276 276 277 278 278 278 277 277 277 281 283 283 284 286 287 288 289 290 290 289 287 286 285 284
289 290 290 290 291 291 291 292 292 292 293 294 295 294 294 294 296 295 296 295 295 295 295 295 295 296 296 296 296 296 295 292 292 293 293 293 292 291 290 289 288 287 286 285 284 283 283 283 282 281 279 278 278 277 276 277 277 277 279 279 279 279 278 277 277 278 278 277 277 277 276 278 279 280 280 281 282 285 285 287 285 285 284 284 284
288 288 288 289 290 291 292 292 291 292 293 295 293 294 295 294 295 296 296 295 295 295 294 294 295 295 295 295 295 292 291 291 291 291 292 292 292 292 292 290 288 287 287 286 285 284 283 283 283 281 279 278 278 277 277 277 279 281 279 279 278 279 278 278 278 277 277 277 276 276 276 277 277 277 278 278 279 282 281 281 280 281 282 283 283
288 288 288 289 290 291 292 292 292 292 293 294 293 295 296 296 295 294 295 295 295 294 294 294 294 294 295 295 296 293 291 290 291 291 292 292 292 291 291 291 290 289 287 286 285 285 284 283 284 282 281 280 280 278 278 279 280 280 279 279 279 278 276 276 275 277 277 277 276 276 276 276 276 275 276 276 277 277 278 278 282 283 282 282 283
287 286 287 289 290 291 292 292 292 293 294 293 294 295 295 296 295 294 294 294 294 294 294 294 294 294 294 294 295 295 295 294 293 292 291 291 291 291 291 291 290 290 290 288 286 285 284 284 283 283 282 281 280 279 279 280 280 280 280 279 279 278 277 276 277 277 277 277 276 275 275 275 275 275 275 275 275 275 276 279 282 283 283 283 283
286 287 288 289 289 290 291 292 292 293 294 294 295 295 295 295 295 294 294 294 294 294 294 294 294 294 294 294 293 294 295 290 290 292 292 291 290 290 290 290 290 290 291 291 290 288 286 285 284 283 283 283 280 280 281 281 282 280 279 278 279 279 278 277 278 278 275 277 276 275 275 275 274 274 274 275 274 274 275 280 282 283 283 283 283
286 287 287 287 288 289 290 291 292 293 293 293 295 295 294 294 295 295 294 294 294 294 294 294 294 293 293 293 293 293 294 292 292 291 290 290 289 288 288 288 288 288 289 290 289 288 287 286 285 283 284 284 282 282 283 284 281 280 279 278 279 278 278 278 279 278 276 277 276 275 273 273 273 273 273 274 274 274 274 278 282 283 283 284 283
287 287 287 287 287 287 288 289 290 291 292 293 294 294 294 295 295 294 294 294 294 293 294 293 293 293 293 293 293 293 293 292 292 290 289 289 288 287 287 287 287 287 287 287 287 287 286 285 285 285 285 285 284 284 283 284 283 283 282 281 280 279 279 276 275 275 274 276 276 276 274 274 273 273 274 273 273 273 273 278 281 282 283 283 283
286 286 287 287 287 287 287 287 288 289 290 293 293 294 294 295 295 294 294 293 293 293 293 293 293 293 293 293 292 292 292 292 291 291 290 288 287 286 286 286 286 286 286 287 288 288 286 285 285 285 285 285 287 285 284 284 283 283 281 279 279 278 276 275 274 273 273 275 275 276 273 270 272 273 273 272 272 272 273 272 279 282 282 283 283
286 286 286 287 287 287 287 287 287 288 288 290 292 293 293 294 294 292 293 291 292 292 292 293 293 293 292 292 292 291 291 291 291 292 292 289 286 286 286 285 285 285 285 285 287 288 287 287 287 287 288 288 289 288 287 287 284 282 279 278 276 277 275 274 274 272 273 273 274 275 273 270 271 272 271 270 271 272 272 272 272 278 281 282 282
286 286 286 286 286 286 286 287 287 287 288 288 291 292 292 293 292 291 291 291 290 291 292 292 292 292 292 289 289 291 290 290 291 292 292 289 286 286 285 285 284 284 283 284 284 285 287 287 287 287 288 288 288 288 288 287 285 283 280 278 277 277 276 276 274 274 272 272 273 275 273 271 270 271 269 267 268 269 271 272 272 273 277 279 281
286 286 286 286 287 287 286 286 286 287 287 288 290 291 291 292 291 290 290 290 290 290 290 290 291 291 291 289 288 289 289 290 291 292 292 290 287 286 285 284 283 283 283 283 282 282 283 284 284 285 285 286 286 285 285 286 285 283 283 281 278 277 276 276 275 272 271 272 273 276 272 270 269 270 270 267 267 267 268 269 270 271 271 271 273
Wind_Speed
6 6 5 5 5 5 5 5 5 5 4 4 5 6 5 5 5 5 5 5 5 5 6 4 4 4 5 5 4 5 5 5 4 3 3 3 4 8 12 12 11 12 15 16 16 16 15 15 13 14 15 15 14 15 14 15 14 14 14 14 14 14 15 15 15 15 15 15 15 16 16 16 16 16 17 16 17 17 17 19 19 19 19 20 20
7 5 6 6 5 4 5 5 5 5 5 5 4 5 6 5 5 5 6 5 5 4 4 6 5 4 4 6 5 5 5 4 4 4 3 4 4 5 11 11 11 13 12 13 16 15 15 14 14 14 14 14 14 14 14 14 14 13 14 14 13 14 14 14 14 14 14 15 14 15 15 15 15 15 16 16 16 16 17 18 18 18 18 19 19
7 7 5 5 5 5 5 5 5 5 5 5 3 5 5 5 6 6 5 5 5 4 4 5 5 4 3 5 5 4 5 4 4 3 3 4 4 4 5 9 10 10 10 13 13 12 12 12 13 14 14 14 14 13 13 13 13 13 13 13 13 13 13 13 13 13 13 13 13 13 14 14 14 15 15 15 14 14 16 17 17 17 18 18 18
6 6 6 6 5 5 4 5 5 5 4 5 5 4 5 5 4 5 4 5 5 4 3 5 5 4 3 5 5 5 5 4 4 3 3 4 4 4 5 6 9 8 10 13 13 14 13 12 10 15 14 13 14 13 13 13 13 13 12 12 12 12 12 12 12 12 11 12 12 12 13 13 13 14 14 14 14 15 16 16 15 16 18 17 17
6 7 6 6 6 6 5 4 5 5 5 5 6 5 5 6 5 5 5 5 6 5 4 4 5 4 3 4 6 6 4 4 4 4 4 3 4 4 5 4 4 8 10 6 14 15 14 13 11 8 10 12 12 11 11 12 12 12 12 11 11 12 11 10 11 11 11 10 11 12 12 12 12 13 13 13 14 14 15 15 15 16 16 16 16
7 6 6 6 6 6 6 5 5 4 5 5 6 5 6 6 6 6 5 5 5 4 5 5 4 4 4 3 5 5 4 5 4 3 3 3 3 3 4 4 4 4 4 9 9 6 13 11 12 11 10 11 10 11 12 11 11 10 10 10 10 10 10 10 10 10 10 10 10 11 11 11 11 12 12 12 12 13 14 13 14 15 15 16 16
7 8 7 7 6 6 6 6 5 5 5 5 6 5 5 6 6 7 5 5 5 4 4 5 5 5 3 3 4 4 4 4 4 3 3 3 3 3 4 4 4 4 4 5 6 11 6 12 10 11 11 9 8 11 11 12 11 10 10 10 10 10 10 10 9 9 9 10 9 9 9 10 10 11 11 11 12 12 13 12 14 15 15 16 16
8 8 8 7 7 7 7 6 6 5 5 5 5 6 5 5 4 7 8 5 6 5 4 5 5 5 3 3 3 3 3 4 4 3 3 3 3 2 3 3 3 4 4 4 5 5 10 8 8 11 11 10 9 7 10 10 10 9 9 9 9 10 9 9 9 9 8 8 8 8 8 9 9 9 10 11 11 11 11 11 13 13 14 14 15
10 9 8 8 7 8 8 8 7 7 7 6 5 5 7 6 5 4 6 8 7 6 5 5 5 4 4 4 4 3 4 2 3 2 1 3 2 2 2 3 2 4 3 3 4 4 7 10 11 11 5 11 11 11 11 10 10 9 8 8 9 9 8 8 7 7 7 6 7 7 7 8 7 8 9 10 10 10 10 11 12 13 14 13 15
10 10 9 9 8 8 8 9 9 8 7 7 6 5 6 7 8 5 5 7 7 8 7 6 5 5 4 3 3 3 3 2 2 2 1 2 2 2 2 2 2 3 3 3 3 4 4 7 9 8 11 10 5 13 11 10 10 11 10 9 8 8 8 8 7 6 5 6 6 6 6 6 6 7 7 8 9 9 8 10 11 11 13 12 14
10 9 10 10 8 7 8 9 8 8 8 7 7 7 7 7 9 7 4 3 7 7 8 7 6 5 5 3 2 3 2 2 2 2 2 1 1 1 2 2 2 2 3 2 3 3 4 4 3 4 6 9 11 8 6 10 10 9 9 9 9 8 7 7 8 6 6 5 5 5 5 5 6 6 6 6 8 7 7 9 9 11 12 11 13
13 12 9 8 9 9 9 9 9 9 9 9 8 8 10 8 6 7 7 4 3 6 8 9 7 7 5 4 3 3 3 3 3 2 2 1 1 2 1 2 2 2 2 2 2 2 3 3 3 4 4 7 9 8 9 10 6 10 10 11 8 8 7 6 6 6 5 5 4 4 4 4 5 5 5 5 7 6 7 9 8 10 11 11 13
11 11 12 10 8 8 9 9 9 10 11 13 13 12 9 8 7 6 9 8 4 5 6 8 10 5 3 3 3 2 2 2 2 2 2 2 1 1 1 1 1 1 1 2 1 1 2 3 4 4 5 5 4 7 9 9 10 3 11 9 10 10 9 8 6 5 5 4 4 4 3 3 4 4 5 6 6 6 7 8 8 10 10 11 12
11 11 11 11 10 8 9 11 11 11 11 10 10 9 9 8 8 7 5 9 7 8 8 9 2 8 8 3 2 2 1 1 2 3 2 2 2 2 1 1 1 1 1 1 0 0 1 2 3 4 4 4 3 4 5 5 5 8 7 4 12 10 10 9 8 6 5 4 4 2 3 2 3 3 3 4 5 5 6 7 9 10 10 11 11
10 10 10 11 11 10 10 11 12 11 10 10 10 12 12 12 11 11 10 5 4 7 11 11 7 5 4 6 2 1 4 2 3 5 4 3 2 2 2 1 3 2 2 1 1 1 0 0 3 4 4 3 4 4 4 4 4 7 7 9 6 11 10 10 9 8 6 5 4 2 1 1 2 2 3 3 4 3 5 6 7 8 10 9 11
13 12 9 9 10 12 11 11 12 12 12 13 12 13 12 12 12 10 10 10 8 11 12 10 6 13 5 5 2 2 3 13 10 3 3 3 2 4 2 3 3 3 2 3 4 3 2 1 2 3 3 3 4 3 4 2 4 4 6 5 6 8 12 10 10 8 7 6 5 4 3 1 1 1 1 2 3 3 4 5 6 7 8 8 10
7 11 12 11 10 8 7 8 8 10 10 10 12 14 15 15 16 13 12 13 10 6 9 10 9 10 10 8 2 1 11 0 5 6 2 4 5 4 4 4 4 4 4 5 3 3 3 3 2 2 3 3 3 3 3 2 1 1 2 3 2 7 3 11 10 9 7 6 7 5 4 3 1 0 1 1 1 3 4 3 4 6 6 9 7
8 7 9 10 11 12 13 12 11 8 8 7 7 5 6 9 12 14 15 12 14 9 9 11 8 10 7 1 6 9 8 4 6 8 1 5 3 4 6 5 4 4 5 5 5 5 4 5 3 4 3 3 3 3 3 2 1 1 0 2 2 6 5 4 10 9 8 7 5 6 5 4 2 1 1 1 1 2 2 3 4 4 5 5 7
6 10 9 8 9 10 11 11 10 9 9 8 8 10 11 12 11 11 13 12 10 10 14 14 6 9 9 5 4 2 6 10 9 5 3 3 5 7 7 6 5 5 6 6 5 5 5 4 4 4 4 4 4 4 3 3 3 3 4 6 6 6 6 5 4 6 7 7 6 6 6 6 4 2 1 1 2 3 1 1 2 2 3 5 9
4 3 6 11 12 11 11 13 13 14 14 14 15 13 11 9 10 12 10 10 13 14 14 11 15 15 13 9 4 3 5 2 5 12 5 4 7 4 3 6 5 8 7 8 8 7 6 6 6 5 5 5 4 5 4 4 4 3 3 8 9 9 8 7 5 5 4 4 5 6 6 6 5 5 3 2 3 3 2 2 1 2 4 9 7
6 7 5 4 8 10 10 8 8 10 10 11 11 12 15 15 14 13 14 13 12 12 9 12 14 13 10 10 6 5 3 3 2 4 6 6 7 9 11 3 3 9 9 8 8 8 8 8 7 7 6 6 6 6 5 5 6 4 5 10 11 12 12 10 9 8 5 4 3 4 6 6 6 5 5 4 3 3 2 2 2 3 4 5 6
5 6 6 5 5 7 8 10 10 8 6 8 9 10 11 12 14 15 15 16 13 12 13 12 14 13 12 13 13 6 3 3 4 6 4 6 9 8 10 12 11 15 9 11 11 10 8 7 7 7 6 6 6 6 6 7 6 6 7 11 11 14 14 12 11 10 9 8 6 4 4 5 5 6 6 6 5 4 3 2 3 3 4 5 6
6 6 6 5 6 5 6 7 9 10 12 13 13 12 11 12 12 13 14 16 13 14 13 10 9 10 10 11 14 15 17 15 15 12 12 10 8 10 7 12 16 9 9 11 10 10 9 8 8 8 8 7 6 6 7 7 7 8 11 12 11 13 16 15 13 12 11 11 10 8 6 4 3 4 5 6 6 6 5 5 5 4 5 5 6
5 6 5 5 5 4 4 5 7 7 9 9 9 11 12 13 13 13 14 16 14 13 13 15 14 11 10 10 11 12 11 11 11 12 12 13 14 12 8 3 3 8 1 5 6 9 10 11 10 9 9 8 7 7 7 7 8 13 10 12 13 12 16 16 15 14 13 12 11 10 9 8 7 5 4 5 7 7 7 6 6 6 6 6 5
6 7 7 6 6 7 6 6 7 7 9 11 11 10 8 7 10 12 13 14 14 14 13 16 16 13 15 14 11 9 12 10 4 8 9 5 6 7 4 4 6 6 4 3 6 6 8 10 10 9 8 8 8 8 8 7 8 12 13 9 14 12 13 15 16 15 14 14 12 11 10 9 9 8 8 8 8 8 8 7 7 6 6 6 7
8 9 8 8 8 8 8 8 7 7 8 8 9 10 11 10 9 11 13 14 13 15 14 14 13 14 10 9 10 12 11 8 7 7 10 9 9 12 6 3 1 2 1 2 1 3 7 11 10 9 9 10 10 9 8 9 8 14 16 9 11 14 13 13 14 15 15 14 12 11 10 9 9 8 8 8 9 9 9 8 8 6 5 6 8
8 8 6 8 9 8 8 9 7 7 6 7 7 8 9 10 10 12 12 11 12 13 14 16 15 16 15 13 11 10 10 8 8 10 9 13 13 11 11 9 4 3 3 3 3 10 10 7 11 11 12 11 10 10 11 10 11 14 15 10 8 13 14 15 14 14 15 14 13 13 12 12 11 11 11 10 10 9 9 8 7 5 4 4 5
6 6 7 8 9 9 9 9 8 7 6 7 7 7 8 10 10 11 13 10 12 13 13 14 16 17 17 15 11 12 11 10 10 10 9 9 9 7 11 11 11 9 4 6 7 11 13 9 7 13 13 13 12 11 11 11 10 17 15 9 8 9 14 16 16 15 14 14 13 14 14 14 14 13 12 11 10 9 8 7 6 5 4 4 5
7 7 7 7 8 8 9 9 9 9 8 7 7 7 7 9 11 12 14 12 12 14 13 14 15 15 13 15 14 11 10 10 9 10 10 9 10 10 11 14 11 11 7 8 11 11 10 15 10 12 16 13 12 11 11 12 12 13 10 9 9 8 12 17 17 16 16 15 14 15 15 15 15 15 13 12 11 10 9 9 8 7 6 5 7
7 6 7 8 8 8 8 9 8 8 9 8 8 8 9 10 12 13 13 11 12 11 12 14 14 12 13 12 11 11 11 11 11 12 11 11 10 11 11 11 11 14 13 13 14 11 8 9 12 9 12 15 13 10 11 12 14 15 10 10 10 9 15 18 17 17 16 16 15 16 16 16 16 15 14 12 12 11 11 10 9 9 7 6 7
7 7 7 7 7 8 8 9 8 9 8 9 8 8 9 11 12 12 12 11 11 12 12 12 12 12 13 15 13 13 12 13 12 11 11 11 12 12 12 10 11 13 14 11 14 9 11 11 13 12 10 16 13 12 11 10 13 15 11 10 10 12 17 14 18 16 15 15 14 15 17 18 17 15 14 14 13 13 13 12 11 9 8 7 8
7 7 8 8 8 8 8 8 8 8 9 9 8 9 9 11 10 10 11 13 14 15 13 13 11 13 15 16 16 14 13 12 11 11 11 12 12 11 12 12 13 14 12 12 15 17 10 13 11 13 14 13 14 14 13 10 9 15 10 10 9 11 9 7 14 16 14 14 14 15 16 16 16 16 16 16 16 15 14 12 10 9 9 9 8
6 7 8 8 8 8 8 9 9 9 9 9 8 8 9 11 11 11 10 11 13 12 12 13 13 13 15 16 16 15 13 13 12 11 11 12 11 11 11 11 13 13 14 15 17 19 8 3 4 8 10 12 12 15 14 12 10 11 9 8 8 8 7 6 6 11 13 12 12 13 14 14 14 15 16 16 17 16 15 13 12 11 11 9 7
6 8 9 8 8 8 9 9 9 9 9 9 8 8 10 10 10 10 11 12 13 13 12 14 13 13 13 14 14 14 13 15 13 13 12 12 12 12 13 13 14 15 15 14 18 16 17 4 4 2 6 11 11 13 17 16 14 11 13 10 8 9 8 6 6 6 11 11 11 12 13 14 15 15 16 17 17 16 16 15 13 12 9 7 7
6 8 9 8 8 8 9 9 9 9 9 9 8 9 10 10 11 10 10 11 12 13 13 14 14 13 13 14 15 13 11 13 14 13 12 13 12 13 16 14 15 16 15 16 15 16 17 9 5 7 9 11 13 13 15 13 12 13 15 13 10 7 6 6 6 4 8 11 12 13 14 15 15 16 17 17 16 16 15 14 13 11 9 7 8
8 8 7 7 7 8 9 9 9 9 9 8 8 9 11 10 11 11 11 12 12 13 14 14 13 13 14 13 14 13 13 14 14 13 12 12 12 13 14 14 15 17 17 16 18 16 13 10 7 9 7 7 7 5 9 8 10 11 11 9 8 8 8 6 6 5 6 12 13 14 15 15 16 17 17 17 16 15 14 13 13 12 10 8 8
9 7 7 6 7 8 10 11 10 9 10 9 9 10 10 9 10 11 11 12 12 13 14 14 13 14 14 15 15 14 14 15 14 13 12 14 14 14 15 15 15 15 13 12 13 11 10 8 3 2 4 4 1 1 7 10 8 7 6 9 9 9 8 6 5 4 7 12 13 15 15 16 16 17 17 16 15 15 14 14 13 12 10 9 7
8 7 7 6 7 9 10 11 10 9 9 9 10 11 11 10 10 11 11 11 12 12 13 13 13 13 14 15 14 14 14 15 15 14 14 16 15 15 16 15 14 12 13 11 7 7 5 3 5 3 5 8 6 6 11 11 11 10 6 4 4 5 7 6 5 5 4 5 5 7 11 13 15 17 16 15 15 15 14 14 13 12 10 8 8
8 8 7 8 7 9 10 10 10 10 9 9 10 11 11 11 11 11 11 11 12 12 12 13 13 13 14 14 14 14 15 16 16 15 15 15 14 17 16 15 14 11 11 10 8 9 10 7 5 7 8 8 9 9 7 8 7 10 15 9 8 4 6 9 7 4 4 5 9 12 9 8 8 7 10 13 14 15 14 14 14 12 9 9 7
8 8 9 8 8 8 10 10 10 9 9 9 10 10 10 10 10 11 11 12 12 12 13 13 12 13 13 14 14 15 16 16 16 15 14 15 13 15 14 12 13 13 13 11 10 11 11 9 10 10 10 10 8 2 6 9 10 8 11 12 15 11 7 5 7 7 6 6 6 5 7 8 9 12 15 14 14 14 14 12 12 11 8 5 5
7 8 7 7 8 9 9 9 9 8 9 10 9 10 10 11 11 12 12 12 12 13 12 13 12 13 13 13 14 14 16 18 20 18 17 16 14 14 14 12 13 13 13 11 11 11 11 12 11 8 8 9 10 13 13 13 17 17 13 10 9 10 8 5 5 7 6 6 5 4 5 6 6 7 6 5 6 10 11 11 6 7 7 7 7
7 6 6 7 8 9 10 9 9 9 10 9 11 16 15 12 10 11 11 12 12 12 13 13 13 13 14 13 14 19 20 21 21 22 22 22 22 18 14 12 14 14 14 14 13 13 14 14 15 12 13 14 14 17 19 17 12 9 12 11 11 8 7 7 4 6 6 6 6 6 6 5 6 6 5 7 5 5 4 4 5 5 6 8 8
7 6 6 8 9 9 10 10 10 10 10 10 15 16 18 19 13 11 12 12 11 12 13 13 14 13 13 13 13 15 17 18 19 22 22 23 23 23 23 18 16 16 15 15 15 14 14 14 14 14 17 16 14 14 14 11 11 12 12 12 11 10 11 12 12 4 7 9 7 6 6 5 6 8 6 6 5 5 5 5 8 10 9 9 9
7 5 7 9 9 9 9 10 11 11 11 12 16 17 17 18 17 13 11 12 12 12 12 13 13 12 13 13 13 12 13 14 14 15 18 22 23 23 23 21 21 23 22 18 16 14 16 15 13 15 15 16 14 12 12 11 11 9 9 10 11 13 12 10 9 9 5 11 8 6 7 4 6 6 5 6 5 5 6 8 12 12 11 10 9
5 6 9 8 10 9 10 11 12 12 11 13 16 17 17 18 19 16 12 12 13 13 12 13 13 13 11 12 12 12 11 15 14 13 12 13 18 22 23 23 24 24 24 26 23 18 15 15 16 15 15 13 11 13 12 13 10 12 9 9 8 9 10 10 9 7 4 9 8 8 8 5 7 7 7 4 5 5 5 9 12 11 11 10 9
6 8 8 10 10 10 10 11 12 12 12 12 16 17 17 18 18 17 13 13 13 14 14 13 13 13 12 12 12 13 11 10 11 11 11 12 11 11 14 15 15 19 23 26 25 25 17 14 13 16 15 12 15 14 12 12 15 13 12 11 10 10 12 12 7 6 4 8 10 7 4 4 5 4 7 4 5 4 5 8 12 11 10 10 9
8 9 9 9 10 9 10 10 11 13 11 13 15 16 16 17 18 17 13 12 13 14 14 13 13 14 13 13 13 14 12 11 10 10 11 12 11 12 12 14 15 14 15 16 17 15 14 13 14 15 10 9 10 13 14 13 15 15 17 18 18 13 8 7 6 5 5 5 6 6 8 4 5 6 6 5 4 4 4 7 10 10 10 10 10
7 7 8 8 10 10 9 9 10 14 11 12 14 15 16 16 18 13 12 12 14 14 14 13 12 13 12 13 13 14 13 12 12 15 15 11 11 14 14 14 13 12 13 15 16 15 12 8 6 5 9 12 13 13 15 15 13 9 7 8 9 9 10 8 8 5 5 5 7 7 4 3 4 6 3 3 4 5 4 4 6 9 10 10 11
8 8 9 9 8 9 9 9 10 13 11 8 12 14 14 16 13 10 11 11 12 14 14 13 13 13 13 12 12 12 12 13 13 15 18 16 12 14 14 14 13 11 12 8 11 15 15 15 15 18 20 22 23 20 22 23 15 14 11 11 10 11 11 10 7 7 8 6 6 6 4 3 4 5 4 1 2 3 4 4 3 5 8 10 10
8 7 7 8 8 8 9 10 9 11 12 7 10 13 14 15 13 11 10 10 12 13 13 13 12 12 13 16 15 13 13 13 13 16 17 14 12 13 12 13 13 13 11 6 6 9 16 17 19 19 20 17 15 18 21 22 22 18 16 15 15 12 11 10 10 8 4 5 6 7 5 4 5 4 4 0 1 2 3 3 3 2 5 6 10
9 8 6 8 9 8 7 9 10 11 12 11 10 12 14 14 12 9 10 10 12 13 11 13 12 11 12 12 16 16 14 14 16 16 17 14 12 13 12 12 14 15 12 9 10 11 12 12 11 11 11 14 14 12 15 26 26 19 13 12 13 13 13 11 8 7 4 5 7 10 8 3 7 5 6 3 2 3 1 1 0 2 2 2 3
Wind_Direction
152 151 140 140 137 135 132 128 121 125 120 110 121 122 111 114 111 109 101 100 95 94 95 62 54 56 83 79 67 68 54 38 25 26 32 37 72 115 115 117 116 117 119 117 113 114 116 115 111 108 106 110 106 103 103 101 96 93 91 90 88 88 89 86 82 80 78 78 76 75 73 72 71 71 73 70 66 64 61 61 61 58 53 54 52
153 150 150 148 144 135 131 137 134 136 130 127 131 126 129 119 114 112 111 106 100 93 93 100 78 65 68 87 66 65 61 43 17 12 13 36 44 88 111 115 117 118 114 115 120 122 122 119 124 115 110 110 111 111 106 104 102 99 97 94 93 91 86 85 85 82 81 80 79 77 76 72 71 70 70 70 67 63 62 62 61 58 53 52 51
152 154 147 144 147 145 144 137 134 143 137 131 126 129 124 125 131 129 122 113 101 94 101 98 90 76 71 88 87 65 60 44 28 10 24 29 41 56 62 87 106 112 118 124 120 122 125 127 126 120 124 119 115 114 111 108 105 104 102 100 97 93 92 91 88 86 83 84 81 76 75 72 71 70 69 70 68 62 60 62 59 58 53 52 51
154 155 153 151 151 149 147 147 150 144 140 138 130 125 122 113 104 105 107 108 103 85 73 99 88 79 72 91 91 77 51 41 41 23 28 28 40 45 60 54 50 80 120 125 124 129 130 133 131 132 132 127 125 119 118 114 111 110 106 103 101 99 96 94 91 88 82 80 77 77 74 73 73 72 70 70 65 61 58 61 58 52 50 50 49
162 161 157 155 150 148 154 159 155 148 143 139 127 122 115 113 100 103 101 98 97 88 83 80 92 73 76 82 86 70 65 70 44 32 27 19 19 37 54 48 47 56 44 82 138 139 139 135 132 123 124 128 126 125 121 120 122 120 116 114 111 107 100 94 94 90 88 78 75 76 76 76 74 74 70 67 65 61 60 56 51 52 51 49 46
160 158 156 152 154 157 159 160 159 150 142 142 137 140 131 126 128 115 114 116 114 114 116 99 57 78 77 74 69 32 69 77 63 36 24 25 1 32 37 48 54 52 44 45 39 119 146 145 140 133 136 134 137 132 130 127 124 119 117 113 106 105 106 101 95 96 89 84 77 77 77 74 72 72 70 68 65 63 62 56 52 50 48 47 45
167 162 165 161 159 161 165 166 156 152 148 157 142 140 138 140 143 125 116 108 114 111 117 117 115 95 65 65 73 60 32 51 54 46 40 11 12 28 28 41 54 52 50 38 33 36 25 150 148 147 146 143 142 137 136 137 131 127 125 123 120 113 109 107 99 89 89 89 86 82 81 79 71 71 68 67 62 61 59 54 49 48 45 45 41
171 169 166 174 171 171 173 159 160 151 152 151 146 147 145 139 154 146 134 138 131 113 98 107 95 89 70 68 48 34 59 35 32 28 6 25 21 26 29 41 42 60 53 39 49 31 38 54 126 154 151 149 146 140 137 136 136 136 131 123 116 118 116 112 112 102 93 93 87 80 75 73 68 64 64 65 62 60 55 48 49 44 45 43 37
175 175 173 177 182 176 169 168 161 159 159 159 159 159 151 150 158 184 158 147 144 129 112 108 102 86 70 43 12 14 50 40 50 19 2 56 16 13 37 36 39 55 47 63 49 50 40 52 52 43 66 156 156 153 148 144 142 137 128 125 127 124 117 117 107 104 97 87 87 80 74 77 77 68 67 66 63 57 50 47 46 39 43 39 41
184 176 179 181 183 182 170 167 165 162 160 164 167 161 164 161 161 175 162 146 149 146 138 122 113 101 75 37 34 24 14 17 2 8 31 68 28 14 357 356 43 43 51 49 55 58 61 53 47 53 53 38 144 164 157 161 156 148 145 140 138 130 131 125 113 110 99 90 88 83 69 71 68 69 66 63 62 57 42 47 46 37 43 37 33
187 188 184 178 180 179 167 170 168 163 161 166 166 173 175 182 168 157 153 147 155 151 142 134 116 104 81 43 29 36 7 11 0 18 5 355 16 14 348 1 15 23 47 36 36 64 78 65 57 73 48 50 48 59 136 160 165 156 148 149 146 141 145 132 132 123 112 98 85 85 78 60 56 58 64 54 60 52 34 45 42 36 43 34 32
186 184 191 186 178 174 174 172 172 165 167 172 177 185 184 177 175 153 141 99 81 129 136 128 105 90 68 47 35 11 32 3 0 354 333 355 346 348 358 338 14 14 26 13 25 61 83 85 89 86 68 52 52 53 59 54 29 168 161 157 157 153 142 149 133 129 117 102 88 76 67 69 56 43 38 50 56 46 19 45 37 36 41 30 31
191 184 186 185 191 178 168 176 180 179 178 184 184 184 180 173 154 155 155 147 146 159 158 140 128 84 46 51 24 6 12 21 359 325 327 326 315 335 333 354 355 21 347 355 16 42 79 100 109 90 84 72 54 49 52 49 37 102 174 171 167 165 164 157 152 133 126 110 90 72 63 46 58 47 33 38 46 27 22 34 29 36 33 29 28
194 192 192 184 181 180 181 180 181 186 190 190 176 167 167 170 160 154 186 168 164 177 175 138 165 172 159 179 349 296 217 301 273 261 273 295 298 314 323 312 291 318 336 3 1 18 38 110 107 106 97 89 82 74 51 47 38 26 35 198 178 174 165 162 160 153 138 129 121 98 54 41 18 41 42 32 43 12 28 22 28 26 28 25 21
195 195 195 193 187 183 189 185 190 187 183 182 177 171 175 177 180 178 166 181 152 184 190 200 148 102 81 90 237 194 264 280 241 238 231 244 309 286 283 280 265 291 315 312 273 275 293 39 114 111 110 112 107 86 73 57 50 31 23 15 170 174 167 167 167 156 157 145 139 137 110 48 351 29 40 6 47 6 31 24 30 20 29 19 22
186 190 198 204 195 193 191 189 192 190 189 183 182 182 177 179 181 192 176 163 180 199 207 202 159 138 157 182 131 147 299 236 214 242 177 247 258 263 272 254 268 295 310 261 245 261 262 299 147 122 128 134 109 100 87 69 46 39 26 0 34 159 171 172 170 164 165 167 166 168 162 180 340 357 39 19 31 340 30 30 17 17 27 16 29
208 197 188 187 185 189 195 203 199 197 199 195 188 188 184 186 185 177 183 183 181 194 211 218 212 206 140 120 83 41 227 333 149 244 141 239 244 247 262 258 256 255 256 259 277 268 268 256 215 159 155 132 118 120 103 77 56 43 11 348 46 65 137 176 174 172 175 176 175 181 186 189 199 311 340 30 351 352 20 28 19 18 16 27 14
188 198 200 193 189 190 190 187 191 193 195 199 197 182 195 195 188 183 186 194 184 173 201 227 232 238 229 127 157 170 178 182 127 242 56 218 242 223 232 246 240 246 245 256 257 256 254 244 228 209 179 161 153 141 132 120 127 48 70 267 180 127 90 164 179 175 183 192 190 183 191 190 197 201 302 322 327 357 1 20 15 24 20 21 360
220 193 191 211 212 191 184 183 187 192 190 189 191 197 195 196 194 193 197 189 172 189 196 201 214 256 243 217 102 128 145 139 201 68 280 248 215 223 234 223 237 242 240 237 238 250 259 260 249 231 212 192 175 168 157 176 178 193 212 234 192 155 139 103 126 168 183 191 194 200 199 196 195 196 209 276 299 299 313 340 40 6 15 312 10
224 263 223 187 186 190 189 189 191 195 192 197 198 196 194 196 195 201 194 197 198 200 199 184 191 215 212 215 164 102 170 112 136 180 164 182 223 221 260 218 226 237 229 225 219 216 230 240 241 238 225 212 190 175 181 175 182 216 243 235 204 182 169 163 149 132 150 176 202 206 212 203 193 196 202 228 259 269 290 332 14 316 319 349 12
223 215 214 227 211 203 196 206 210 205 200 205 204 195 192 188 191 192 197 202 206 213 202 201 204 213 180 222 195 182 156 198 100 201 189 201 243 195 214 154 235 248 227 223 224 212 208 213 221 224 220 211 195 186 182 185 194 202 222 229 216 196 188 183 173 174 167 182 188 218 218 205 209 201 198 216 234 251 256 279 309 321 337 334 355
222 224 223 209 207 212 200 193 193 193 191 215 215 209 206 203 199 198 199 201 207 209 211 211 211 217 200 200 192 159 116 187 223 192 226 210 222 205 202 192 212 230 201 217 217 213 209 208 217 223 229 223 205 191 185 193 195 195 216 226 231 203 196 190 188 186 188 190 193 204 218 218 214 218 212 212 222 236 242 251 284 304 314 346 339
214 223 220 217 219 207 210 208 199 195 197 198 205 205 204 202 202 204 207 207 208 208 214 225 228 237 233 213 203 191 191 193 199 194 194 199 217 235 201 207 214 213 208 209 209 212 206 202 210 214 214 216 216 202 196 197 196 202 205 221 232 223 199 195 192 189 189 195 196 193 205 203 212 239 226 217 222 228 226 235 252 266 291 309 333
217 224 221 214 224 224 211 213 214 206 211 215 219 214 208 203 201 200 206 211 215 209 209 214 211 211 223 231 228 220 221 215 213 190 190 211 202 215 189 186 263 234 83 190 205 209 206 210 213 213 210 207 207 206 202 195 205 205 206 217 220 225 205 199 194 193 195 198 193 192 199 198 197 205 219 235 229 227 233 241 248 265 276 303 327
223 226 223 209 215 220 216 216 219 216 212 202 209 210 217 218 214 207 208 207 209 211 210 216 216 208 215 221 225 228 225 226 168 181 205 189 173 211 204 170 214 228 193 145 214 214 212 218 209 212 211 211 207 202 202 200 200 207 201 210 214 214 210 206 199 197 199 201 199 195 202 200 196 200 206 216 227 233 235 239 254 264 279 312 320
219 221 217 218 217 223 222 224 221 214 214 216 212 209 205 208 208 213 214 214 208 209 217 221 223 225 223 228 228 231 233 222 200 169 183 178 198 205 173 185 280 258 39 228 247 193 236 225 209 208 211 210 207 200 200 201 201 206 201 193 209 209 208 209 205 202 202 205 201 201 206 208 203 202 213 220 222 231 236 240 251 265 287 312 324
216 221 215 218 224 223 223 224 219 214 209 215 219 215 214 212 210 214 218 219 220 215 215 213 217 220 221 223 227 226 231 222 204 206 185 197 198 193 166 182 218 190 215 200 240 227 235 222 202 208 210 207 205 202 200 200 203 198 199 189 198 208 205 207 205 205 207 204 202 204 207 207 208 210 208 212 225 228 236 247 256 279 315 326 318
218 209 217 211 220 225 228 230 227 221 213 212 212 215 215 216 218 216 219 211 215 214 222 220 224 222 220 221 224 226 221 218 212 211 205 198 201 178 186 196 196 229 195 234 216 243 219 225 209 213 208 206 205 203 197 195 200 199 194 186 189 199 205 204 203 204 205 204 205 208 211 209 209 212 211 212 215 223 233 244 255 265 269 277 282
217 207 212 211 217 219 224 229 230 231 231 224 217 219 220 222 221 218 220 213 214 216 215 219 223 225 228 222 222 223 219 219 216 215 214 206 204 201 195 198 195 216 213 226 227 226 222 207 210 218 206 205 205 200 193 201 199 189 192 189 186 188 201 202 202 204 206 207 208 211 213 214 213 213 214 215 217 223 227 230 236 243 251 261 273
214 213 210 213 214 214 219 223 224 226 229 231 230 230 229 230 224 222 220 212 216 218 218 220 222 220 224 226 224 228 221 219 218 214 212 211 205 207 206 206 201 212 221 223 246 198 221 203 214 215 193 203 201 197 200 204 196 185 192 189 189 190 194 199 201 203 205 206 209 213 215 217 217 216 217 216 217 221 226 229 231 237 243 254 271
215 213 214 217 214 217 217 222 220 223 224 226 225 229 228 232 223 222 217 214 217 221 220 219 223 221 223 226 222 227 219 224 219 215 215 209 212 209 212 207 213 216 224 231 252 231 182 208 215 215 187 201 194 196 198 201 193 187 188 191 193 188 190 198 198 201 201 204 210 215 218 219 219 218 218 218 220 221 226 227 230 236 244 255 265
218 212 216 216 213 217 218 222 226 226 224 224 222 226 227 231 229 226 220 211 214 217 219 215 219 219 223 225 222 223 219 223 219 216 215 214 213 213 211 213 219 221 222 232 239 251 190 206 201 203 189 187 188 192 198 198 195 189 190 190 189 182 191 200 202 200 199 202 208 215 220 223 224 222 221 222 222 224 225 228 230 235 241 247 259
210 217 220 218 215 216 217 221 223 225 226 228 225 227 229 232 229 226 221 220 223 227 222 222 220 221 223 225 225 224 219 223 220 220 217 215 212 217 216 218 224 223 222 226 232 243 227 248 206 197 179 168 187 195 192 190 188 193 188 190 178 183 188 196 203 206 200 204 210 216 219 222 224 225 225 223 223 224 225 224 226 230 235 243 256
204 223 223 219 215 214 218 225 224 224 227 228 225 225 231 233 233 225 225 221 225 227 222 227 222 223 225 228 230 228 224 228 223 222 216 216 211 215 217 217 223 225 220 225 238 242 239 123 221 111 162 185 191 188 192 186 190 185 188 185 184 184 183 182 189 203 204 206 212 219 224 227 228 228 226 224 223 223 223 223 223 230 235 239 248
223 225 227 219 216 216 221 226 226 225 224 227 223 224 231 232 232 231 227 224 225 226 226 228 226 224 228 228 231 226 225 229 226 227 219 218 211 215 219 217 224 227 220 223 232 239 241 225 172 173 184 187 196 187 194 193 188 186 187 185 179 175 177 179 188 179 202 210 216 222 225 228 230 231 231 229 225 225 226 226 228 230 232 236 245
237 235 228 226 219 218 225 229 227 226 225 223 223 224 231 229 233 234 231 230 229 229 229 230 227 224 228 230 232 226 225 229 227 223 222 217 214 218 223 223 226 230 226 220 224 235 239 220 192 187 190 171 204 178 191 186 180 185 192 175 163 171 173 177 180 171 199 214 221 226 229 231 233 233 232 231 228 227 226 224 223 226 228 231 240
243 242 238 225 227 223 227 230 229 225 225 222 224 229 231 232 233 234 234 233 233 234 234 234 230 227 227 228 230 223 225 229 229 225 220 219 219 220 224 224 225 230 232 231 230 235 245 228 157 119 127 158 7 193 181 177 175 176 178 182 180 176 170 166 153 176 202 218 224 229 231 233 235 236 235 231 229 227 227 226 225 225 224 227 233
250 242 239 231 225 231 232 235 232 230 226 222 225 230 231 231 233 235 237 237 238 238 237 236 234 230 231 231 231 225 226 225 230 226 222 223 223 224 226 226 226 227 229 230 219 221 224 236 161 147 175 167 172 185 186 181 175 169 145 125 109 150 141 147 164 163 182 203 213 228 232 236 240 241 239 235 231 228 227 227 227 224 221 221 231
248 250 241 238 231 231 237 235 233 231 228 222 226 229 233 233 233 235 236 239 241 242 242 240 238 235 234 235 233 228 229 228 230 227 223 225 223 227 225 226 225 223 227 223 208 206 207 184 174 183 176 198 186 185 182 178 186 180 167 148 163 173 174 162 163 167 169 208 227 225 222 222 237 246 248 241 235 231 229 230 231 224 220 227 224
243 243 245 240 240 231 238 237 237 232 230 229 228 230 232 232 233 237 237 239 240 241 242 242 240 239 237 236 234 231 229 231 229 231 223 229 224 229 226 220 221 218 221 214 206 205 203 201 195 192 193 183 176 116 149 168 172 195 195 178 181 182 179 176 193 186 194 190 214 210 228 234 240 242 242 240 238 235 232 230 229 229 222 178 194
246 245 246 242 245 245 244 240 242 234 232 231 228 227 231 234 234 240 240 241 241 245 245 244 241 240 240 238 237 235 233 234 230 229 227 225 223 228 226 212 217 214 218 210 206 204 209 206 211 194 185 189 192 164 170 188 193 188 178 176 183 182 178 164 200 207 194 191 197 186 212 202 219 226 220 226 229 230 233 226 209 197 182 202 225
250 247 245 242 241 246 249 246 240 236 236 235 232 229 227 231 235 239 242 243 242 244 246 248 246 241 241 240 241 237 236 235 234 233 233 231 229 227 227 207 210 211 214 211 210 209 209 209 209 192 194 202 195 189 182 191 185 164 167 173 169 162 142 193 211 202 186 179 189 212 219 182 198 227 206 217 214 211 204 190 193 192 206 222 237
252 249 243 249 245 244 246 249 248 241 239 236 235 233 235 234 235 241 243 246 243 244 245 246 248 244 243 241 243 241 239 239 238 237 235 235 235 233 232 222 211 210 213 214 217 208 210 216 210 200 207 208 202 189 193 181 184 174 167 170 170 158 174 179 204 161 184 172 191 205 231 173 177 212 210 208 196 197 198 205 211 212 215 225 231
256 250 250 248 250 248 248 248 248 247 246 239 237 238 237 238 236 240 246 249 249 246 246 247 249 249 248 246 244 242 238 235 234 236 237 237 237 236 234 229 222 219 218 214 211 209 211 215 211 212 209 211 198 182 183 176 180 166 170 169 172 175 177 189 193 191 164 164 170 179 225 149 182 211 217 209 187 191 198 202 211 213 214 220 227
267 254 251 250 249 246 245 250 251 248 249 240 239 239 237 238 238 238 247 246 251 252 249 248 250 250 251 251 253 247 246 237 234 234 235 237 236 236 234 231 229 224 223 224 221 217 209 211 213 211 209 203 185 193 183 175 164 165 162 178 181 180 183 186 190 166 154 172 161 186 211 180 169 197 221 200 180 184 202 208 209 209 214 221 223
258 257 253 249 250 245 243 246 251 250 247 241 237 238 237 238 239 238 246 247 249 252 251 250 251 251 249 251 254 255 249 241 236 232 232 235 233 231 231 229 229 228 227 227 223 222 215 215 211 214 207 186 195 182 177 165 166 172 169 183 179 180 185 192 167 135 111 165 172 162 190 193 171 166 218 195 160 189 193 206 207 209 213 218 227
255 253 253 253 250 246 247 245 252 255 247 238 237 237 237 238 239 240 246 247 251 252 251 249 249 250 250 249 250 254 253 245 236 223 225 227 227 228 226 227 228 227 225 225 223 218 213 212 214 219 198 185 182 173 176 178 177 175 181 183 182 178 138 84 65 75 106 181 163 153 197 154 164 180 215 161 150 188 197 209 210 206 215 220 229
255 257 261 250 256 253 246 246 252 257 255 238 243 242 239 240 239 242 244 246 251 253 253 250 248 247 247 246 250 252 252 250 240 223 221 221 221 227 226 229 230 228 228 225 220 214 213 211 202 185 178 190 182 179 178 175 175 155 107 90 105 124 140 154 167 152 162 178 183 176 173 199 189 183 176 90 125 187 186 203 224 216 218 225 228
262 259 255 253 250 252 253 244 248 261 266 243 242 247 244 244 242 245 245 247 250 252 253 253 250 249 245 243 244 250 250 250 242 230 226 216 223 225 227 229 229 226 229 216 203 200 193 190 188 195 190 191 193 187 182 176 162 148 137 137 157 153 155 170 170 167 196 161 193 197 139 159 184 164 137 87 169 200 199 206 208 231 230 229 229
278 263 262 268 256 245 254 256 244 262 272 253 241 250 247 245 241 245 248 249 252 252 255 253 251 251 249 242 239 244 248 248 242 234 231 218 220 224 224 227 227 226 222 182 173 187 191 197 199 197 194 188 181 177 177 171 159 155 155 171 173 162 171 173 176 179 127 167 190 167 143 198 134 154 123 24 17 284 244 222 184 217 238 245 234
277 283 276 278 281 267 250 259 261 257 271 272 252 253 251 247 245 248 250 252 256 254 256 259 255 251 252 247 238 238 242 246 242 239 235 221 219 219 219 219 225 225 216 172 182 184 188 190 197 190 188 186 184 176 181 177 168 171 177 161 150 162 169 173 151 119 133 233 188 170 171 187 140 195 140 123 217 267 216 332 130 116 186 206 263